Index of /20260504/WXO-DD/model_caps/3km/12/029
Name Last modified Size Description
Parent Directory -
20260504T12Z_MSC_CAPS_AbsoluteVorticity_IsbL-0250_RLatLon0.03_PT029H.grib2 2026-05-04 18:19 893K
20260504T12Z_MSC_CAPS_AbsoluteVorticity_IsbL-0500_RLatLon0.03_PT029H.grib2 2026-05-04 18:19 1.1M
20260504T12Z_MSC_CAPS_AbsoluteVorticity_IsbL-0700_RLatLon0.03_PT029H.grib2 2026-05-04 18:19 1.1M
20260504T12Z_MSC_CAPS_AbsoluteVorticity_IsbL-0850_RLatLon0.03_PT029H.grib2 2026-05-04 18:19 1.3M
20260504T12Z_MSC_CAPS_AbsoluteVorticity_IsbL-1000_RLatLon0.03_PT029H.grib2 2026-05-04 18:19 1.4M
20260504T12Z_MSC_CAPS_AirDensity_AGL-120m_RLatLon0.03_PT029H.grib2 2026-05-04 18:19 1.4M
20260504T12Z_MSC_CAPS_AirDensity_AGL-40m_RLatLon0.03_PT029H.grib2 2026-05-04 18:19 1.4M
20260504T12Z_MSC_CAPS_AirDensity_AGL-80m_RLatLon0.03_PT029H.grib2 2026-05-04 18:19 1.4M
20260504T12Z_MSC_CAPS_AirTemp_AGL-120m_RLatLon0.03_PT029H.grib2 2026-05-04 18:19 1.4M
20260504T12Z_MSC_CAPS_AirTemp_AGL-2m_RLatLon0.03_PT029H.grib2 2026-05-04 18:19 1.7M
20260504T12Z_MSC_CAPS_AirTemp_AGL-40m_RLatLon0.03_PT029H.grib2 2026-05-04 18:19 1.5M
20260504T12Z_MSC_CAPS_AirTemp_AGL-80m_RLatLon0.03_PT029H.grib2 2026-05-04 18:19 1.5M
20260504T12Z_MSC_CAPS_AirTemp_IsbL-0050_RLatLon0.03_PT029H.grib2 2026-05-04 18:19 692K
20260504T12Z_MSC_CAPS_AirTemp_IsbL-0100_RLatLon0.03_PT029H.grib2 2026-05-04 18:19 952K
20260504T12Z_MSC_CAPS_AirTemp_IsbL-0150_RLatLon0.03_PT029H.grib2 2026-05-04 18:19 746K
20260504T12Z_MSC_CAPS_AirTemp_IsbL-0175_RLatLon0.03_PT029H.grib2 2026-05-04 18:19 774K
20260504T12Z_MSC_CAPS_AirTemp_IsbL-0200_RLatLon0.03_PT029H.grib2 2026-05-04 18:19 793K
20260504T12Z_MSC_CAPS_AirTemp_IsbL-0225_RLatLon0.03_PT029H.grib2 2026-05-04 18:19 789K
20260504T12Z_MSC_CAPS_AirTemp_IsbL-0250_RLatLon0.03_PT029H.grib2 2026-05-04 18:19 1.0M
20260504T12Z_MSC_CAPS_AirTemp_IsbL-0275_RLatLon0.03_PT029H.grib2 2026-05-04 18:19 1.0M
20260504T12Z_MSC_CAPS_AirTemp_IsbL-0300_RLatLon0.03_PT029H.grib2 2026-05-04 18:19 1.0M
20260504T12Z_MSC_CAPS_AirTemp_IsbL-0350_RLatLon0.03_PT029H.grib2 2026-05-04 18:19 749K
20260504T12Z_MSC_CAPS_AirTemp_IsbL-0400_RLatLon0.03_PT029H.grib2 2026-05-04 18:19 757K
20260504T12Z_MSC_CAPS_AirTemp_IsbL-0450_RLatLon0.03_PT029H.grib2 2026-05-04 18:19 775K
20260504T12Z_MSC_CAPS_AirTemp_IsbL-0500_RLatLon0.03_PT029H.grib2 2026-05-04 18:19 792K
20260504T12Z_MSC_CAPS_AirTemp_IsbL-0550_RLatLon0.03_PT029H.grib2 2026-05-04 18:19 805K
20260504T12Z_MSC_CAPS_AirTemp_IsbL-0600_RLatLon0.03_PT029H.grib2 2026-05-04 18:19 823K
20260504T12Z_MSC_CAPS_AirTemp_IsbL-0650_RLatLon0.03_PT029H.grib2 2026-05-04 18:19 852K
20260504T12Z_MSC_CAPS_AirTemp_IsbL-0700_RLatLon0.03_PT029H.grib2 2026-05-04 18:19 1.0M
20260504T12Z_MSC_CAPS_AirTemp_IsbL-0750_RLatLon0.03_PT029H.grib2 2026-05-04 18:19 1.0M
20260504T12Z_MSC_CAPS_AirTemp_IsbL-0800_RLatLon0.03_PT029H.grib2 2026-05-04 18:19 1.1M
20260504T12Z_MSC_CAPS_AirTemp_IsbL-0850_RLatLon0.03_PT029H.grib2 2026-05-04 18:19 1.1M
20260504T12Z_MSC_CAPS_AirTemp_IsbL-0875_RLatLon0.03_PT029H.grib2 2026-05-04 18:19 1.1M
20260504T12Z_MSC_CAPS_AirTemp_IsbL-0900_RLatLon0.03_PT029H.grib2 2026-05-04 18:19 1.1M
20260504T12Z_MSC_CAPS_AirTemp_IsbL-0925_RLatLon0.03_PT029H.grib2 2026-05-04 18:19 1.2M
20260504T12Z_MSC_CAPS_AirTemp_IsbL-0950_RLatLon0.03_PT029H.grib2 2026-05-04 18:19 1.1M
20260504T12Z_MSC_CAPS_AirTemp_IsbL-0970_RLatLon0.03_PT029H.grib2 2026-05-04 18:19 1.1M
20260504T12Z_MSC_CAPS_AirTemp_IsbL-0985_RLatLon0.03_PT029H.grib2 2026-05-04 18:19 1.1M
20260504T12Z_MSC_CAPS_AirTemp_IsbL-1000_RLatLon0.03_PT029H.grib2 2026-05-04 18:19 1.0M
20260504T12Z_MSC_CAPS_AirTemp_IsbL-1015_RLatLon0.03_PT029H.grib2 2026-05-04 18:19 1.1M
20260504T12Z_MSC_CAPS_Albedo_Sfc_RLatLon0.03_PT029H.grib2 2026-05-04 18:19 2.7M
20260504T12Z_MSC_CAPS_CAPE_Sfc_RLatLon0.03_PT029H.grib2 2026-05-04 18:19 207K
20260504T12Z_MSC_CAPS_CloudWater_EAtm_RLatLon0.03_PT029H.grib2 2026-05-04 18:19 1.6M
20260504T12Z_MSC_CAPS_ConvectivePrecip-Accum_Sfc_RLatLon0.03_PT029H.grib2 2026-05-04 18:19 4.1M
20260504T12Z_MSC_CAPS_DewPointDepression_AGL-120m_RLatLon0.03_PT029H.grib2 2026-05-04 18:19 2.1M
20260504T12Z_MSC_CAPS_DewPointDepression_AGL-2m_RLatLon0.03_PT029H.grib2 2026-05-04 18:19 2.2M
20260504T12Z_MSC_CAPS_DewPointDepression_AGL-40m_RLatLon0.03_PT029H.grib2 2026-05-04 18:19 2.2M
20260504T12Z_MSC_CAPS_DewPointDepression_AGL-80m_RLatLon0.03_PT029H.grib2 2026-05-04 18:19 2.2M
20260504T12Z_MSC_CAPS_DewPointDepression_IsbL-0050_RLatLon0.03_PT029H.grib2 2026-05-04 18:19 3.1K
20260504T12Z_MSC_CAPS_DewPointDepression_IsbL-0100_RLatLon0.03_PT029H.grib2 2026-05-04 18:19 57K
20260504T12Z_MSC_CAPS_DewPointDepression_IsbL-0150_RLatLon0.03_PT029H.grib2 2026-05-04 18:19 63K
20260504T12Z_MSC_CAPS_DewPointDepression_IsbL-0175_RLatLon0.03_PT029H.grib2 2026-05-04 18:19 214K
20260504T12Z_MSC_CAPS_DewPointDepression_IsbL-0200_RLatLon0.03_PT029H.grib2 2026-05-04 18:19 392K
20260504T12Z_MSC_CAPS_DewPointDepression_IsbL-0225_RLatLon0.03_PT029H.grib2 2026-05-04 18:19 618K
20260504T12Z_MSC_CAPS_DewPointDepression_IsbL-0250_RLatLon0.03_PT029H.grib2 2026-05-04 18:19 864K
20260504T12Z_MSC_CAPS_DewPointDepression_IsbL-0275_RLatLon0.03_PT029H.grib2 2026-05-04 18:19 1.0M
20260504T12Z_MSC_CAPS_DewPointDepression_IsbL-0300_RLatLon0.03_PT029H.grib2 2026-05-04 18:19 1.0M
20260504T12Z_MSC_CAPS_DewPointDepression_IsbL-0350_RLatLon0.03_PT029H.grib2 2026-05-04 18:19 1.1M
20260504T12Z_MSC_CAPS_DewPointDepression_IsbL-0400_RLatLon0.03_PT029H.grib2 2026-05-04 18:19 1.1M
20260504T12Z_MSC_CAPS_DewPointDepression_IsbL-0450_RLatLon0.03_PT029H.grib2 2026-05-04 18:19 1.2M
20260504T12Z_MSC_CAPS_DewPointDepression_IsbL-0500_RLatLon0.03_PT029H.grib2 2026-05-04 18:19 1.2M
20260504T12Z_MSC_CAPS_DewPointDepression_IsbL-0550_RLatLon0.03_PT029H.grib2 2026-05-04 18:19 1.2M
20260504T12Z_MSC_CAPS_DewPointDepression_IsbL-0600_RLatLon0.03_PT029H.grib2 2026-05-04 18:19 1.3M
20260504T12Z_MSC_CAPS_DewPointDepression_IsbL-0650_RLatLon0.03_PT029H.grib2 2026-05-04 18:19 1.3M
20260504T12Z_MSC_CAPS_DewPointDepression_IsbL-0700_RLatLon0.03_PT029H.grib2 2026-05-04 18:19 1.3M
20260504T12Z_MSC_CAPS_DewPointDepression_IsbL-0750_RLatLon0.03_PT029H.grib2 2026-05-04 18:19 1.3M
20260504T12Z_MSC_CAPS_DewPointDepression_IsbL-0800_RLatLon0.03_PT029H.grib2 2026-05-04 18:19 1.3M
20260504T12Z_MSC_CAPS_DewPointDepression_IsbL-0850_RLatLon0.03_PT029H.grib2 2026-05-04 18:19 1.3M
20260504T12Z_MSC_CAPS_DewPointDepression_IsbL-0875_RLatLon0.03_PT029H.grib2 2026-05-04 18:19 1.3M
20260504T12Z_MSC_CAPS_DewPointDepression_IsbL-0900_RLatLon0.03_PT029H.grib2 2026-05-04 18:19 1.4M
20260504T12Z_MSC_CAPS_DewPointDepression_IsbL-0925_RLatLon0.03_PT029H.grib2 2026-05-04 18:19 1.4M
20260504T12Z_MSC_CAPS_DewPointDepression_IsbL-0950_RLatLon0.03_PT029H.grib2 2026-05-04 18:19 1.4M
20260504T12Z_MSC_CAPS_DewPointDepression_IsbL-0970_RLatLon0.03_PT029H.grib2 2026-05-04 18:19 1.4M
20260504T12Z_MSC_CAPS_DewPointDepression_IsbL-0985_RLatLon0.03_PT029H.grib2 2026-05-04 18:19 1.4M
20260504T12Z_MSC_CAPS_DewPointDepression_IsbL-1000_RLatLon0.03_PT029H.grib2 2026-05-04 18:19 1.4M
20260504T12Z_MSC_CAPS_DewPointDepression_IsbL-1015_RLatLon0.03_PT029H.grib2 2026-05-04 18:19 1.3M
20260504T12Z_MSC_CAPS_DewPoint_AGL-120m_RLatLon0.03_PT029H.grib2 2026-05-04 18:19 3.7M
20260504T12Z_MSC_CAPS_DewPoint_AGL-2m_RLatLon0.03_PT029H.grib2 2026-05-04 18:19 2.1M
20260504T12Z_MSC_CAPS_DewPoint_AGL-40m_RLatLon0.03_PT029H.grib2 2026-05-04 18:19 3.8M
20260504T12Z_MSC_CAPS_DewPoint_AGL-80m_RLatLon0.03_PT029H.grib2 2026-05-04 18:19 3.7M
20260504T12Z_MSC_CAPS_DownwardLongwaveRadiationFlux-Accum_Sfc_RLatLon0.03_PT029H.grib2 2026-05-04 18:19 2.4M
20260504T12Z_MSC_CAPS_DownwardShortwaveRadiationFlux-Accum_NTAtm_RLatLon0.03_PT029H.grib2 2026-05-04 18:19 479K
20260504T12Z_MSC_CAPS_DownwardShortwaveRadiationFlux-Accum_Sfc_RLatLon0.03_PT029H.grib2 2026-05-04 18:19 2.7M
20260504T12Z_MSC_CAPS_FreezingRain-Accum_Sfc_RLatLon0.03_PT029H.grib2 2026-05-04 18:19 740K
20260504T12Z_MSC_CAPS_GeopotentialHeight_IsbL-0050_RLatLon0.03_PT029H.grib2 2026-05-04 18:19 623K
20260504T12Z_MSC_CAPS_GeopotentialHeight_IsbL-0100_RLatLon0.03_PT029H.grib2 2026-05-04 18:19 821K
20260504T12Z_MSC_CAPS_GeopotentialHeight_IsbL-0150_RLatLon0.03_PT029H.grib2 2026-05-04 18:19 607K
20260504T12Z_MSC_CAPS_GeopotentialHeight_IsbL-0175_RLatLon0.03_PT029H.grib2 2026-05-04 18:19 723K
20260504T12Z_MSC_CAPS_GeopotentialHeight_IsbL-0200_RLatLon0.03_PT029H.grib2 2026-05-04 18:19 740K
20260504T12Z_MSC_CAPS_GeopotentialHeight_IsbL-0225_RLatLon0.03_PT029H.grib2 2026-05-04 18:19 756K
20260504T12Z_MSC_CAPS_GeopotentialHeight_IsbL-0250_RLatLon0.03_PT029H.grib2 2026-05-04 18:19 766K
20260504T12Z_MSC_CAPS_GeopotentialHeight_IsbL-0275_RLatLon0.03_PT029H.grib2 2026-05-04 18:19 775K
20260504T12Z_MSC_CAPS_GeopotentialHeight_IsbL-0300_RLatLon0.03_PT029H.grib2 2026-05-04 18:19 778K
20260504T12Z_MSC_CAPS_GeopotentialHeight_IsbL-0350_RLatLon0.03_PT029H.grib2 2026-05-04 18:19 780K
20260504T12Z_MSC_CAPS_GeopotentialHeight_IsbL-0400_RLatLon0.03_PT029H.grib2 2026-05-04 18:19 777K
20260504T12Z_MSC_CAPS_GeopotentialHeight_IsbL-0450_RLatLon0.03_PT029H.grib2 2026-05-04 18:19 770K
20260504T12Z_MSC_CAPS_GeopotentialHeight_IsbL-0500_RLatLon0.03_PT029H.grib2 2026-05-04 18:19 763K
20260504T12Z_MSC_CAPS_GeopotentialHeight_IsbL-0550_RLatLon0.03_PT029H.grib2 2026-05-04 18:19 643K
20260504T12Z_MSC_CAPS_GeopotentialHeight_IsbL-0600_RLatLon0.03_PT029H.grib2 2026-05-04 18:19 640K
20260504T12Z_MSC_CAPS_GeopotentialHeight_IsbL-0650_RLatLon0.03_PT029H.grib2 2026-05-04 18:19 814K
20260504T12Z_MSC_CAPS_GeopotentialHeight_IsbL-0700_RLatLon0.03_PT029H.grib2 2026-05-04 18:19 815K
20260504T12Z_MSC_CAPS_GeopotentialHeight_IsbL-0750_RLatLon0.03_PT029H.grib2 2026-05-04 18:19 898K
20260504T12Z_MSC_CAPS_GeopotentialHeight_IsbL-0800_RLatLon0.03_PT029H.grib2 2026-05-04 18:19 830K
20260504T12Z_MSC_CAPS_GeopotentialHeight_IsbL-0850_RLatLon0.03_PT029H.grib2 2026-05-04 18:19 840K
20260504T12Z_MSC_CAPS_GeopotentialHeight_IsbL-0875_RLatLon0.03_PT029H.grib2 2026-05-04 18:19 831K
20260504T12Z_MSC_CAPS_GeopotentialHeight_IsbL-0900_RLatLon0.03_PT029H.grib2 2026-05-04 18:19 851K
20260504T12Z_MSC_CAPS_GeopotentialHeight_IsbL-0925_RLatLon0.03_PT029H.grib2 2026-05-04 18:19 862K
20260504T12Z_MSC_CAPS_GeopotentialHeight_IsbL-0950_RLatLon0.03_PT029H.grib2 2026-05-04 18:19 865K
20260504T12Z_MSC_CAPS_GeopotentialHeight_IsbL-0970_RLatLon0.03_PT029H.grib2 2026-05-04 18:19 686K
20260504T12Z_MSC_CAPS_GeopotentialHeight_IsbL-0985_RLatLon0.03_PT029H.grib2 2026-05-04 18:19 691K
20260504T12Z_MSC_CAPS_GeopotentialHeight_IsbL-1000_RLatLon0.03_PT029H.grib2 2026-05-04 18:19 697K
20260504T12Z_MSC_CAPS_GeopotentialHeight_IsbL-1015_RLatLon0.03_PT029H.grib2 2026-05-04 18:19 704K
20260504T12Z_MSC_CAPS_GeopotentialHeight_Sfc_RLatLon0.03_PT029H.grib2 2026-05-04 18:19 1.0M
20260504T12Z_MSC_CAPS_IcePellets-Accum_Sfc_RLatLon0.03_PT029H.grib2 2026-05-04 18:19 95K
20260504T12Z_MSC_CAPS_LatentHeatNetFlux_Sfc_RLatLon0.03_PT029H.grib2 2026-05-04 18:19 2.0M
20260504T12Z_MSC_CAPS_LiftedIndex-MU-VT_IsbL-0500_RLatLon0.03_PT029H.grib2 2026-05-04 18:19 3.3M
20260504T12Z_MSC_CAPS_MixedLayerThickness_Sfc_RLatLon0.03_PT029H.nc 2026-05-04 18:14 16M
20260504T12Z_MSC_CAPS_NetLongwaveRadiationFlux-Accum_Sfc_RLatLon0.03_PT029H.grib2 2026-05-04 18:19 2.6M
20260504T12Z_MSC_CAPS_NetShortwaveRadiationFlux-Accum_Sfc_RLatLon0.03_PT029H.grib2 2026-05-04 18:19 2.7M
20260504T12Z_MSC_CAPS_PlanetaryBoundaryLayerHeight_Sfc_RLatLon0.03_PT029H.grib2 2026-05-04 18:19 3.0M
20260504T12Z_MSC_CAPS_Precip-Accum_Sfc_RLatLon0.03_PT029H.grib2 2026-05-04 18:19 4.9M
20260504T12Z_MSC_CAPS_PrecipRate_Sfc_RLatLon0.03_PT029H.grib2 2026-05-04 18:19 469K
20260504T12Z_MSC_CAPS_PrecipType-Instant_Sfc_RLatLon0.03_PT029H.grib2 2026-05-04 18:19 2.1M
20260504T12Z_MSC_CAPS_Pressure_MSL_RLatLon0.03_PT029H.grib2 2026-05-04 18:19 930K
20260504T12Z_MSC_CAPS_Pressure_Sfc_RLatLon0.03_PT029H.grib2 2026-05-04 18:19 1.2M
20260504T12Z_MSC_CAPS_RadiativeTemp_Sfc_RLatLon0.03_PT029H.grib2 2026-05-04 18:19 2.0M
20260504T12Z_MSC_CAPS_Rain-Accum_Sfc_RLatLon0.03_PT029H.grib2 2026-05-04 18:19 2.5M
20260504T12Z_MSC_CAPS_RelativeHumidity_AGL-120m_RLatLon0.03_PT029H.grib2 2026-05-04 18:19 2.9M
20260504T12Z_MSC_CAPS_RelativeHumidity_AGL-2m_RLatLon0.03_PT029H.grib2 2026-05-04 18:19 2.9M
20260504T12Z_MSC_CAPS_RelativeHumidity_AGL-40m_RLatLon0.03_PT029H.grib2 2026-05-04 18:19 2.9M
20260504T12Z_MSC_CAPS_RelativeHumidity_AGL-80m_RLatLon0.03_PT029H.grib2 2026-05-04 18:19 2.9M
20260504T12Z_MSC_CAPS_RelativeHumidity_IsbL-0050_RLatLon0.03_PT029H.grib2 2026-05-04 18:19 1.0M
20260504T12Z_MSC_CAPS_RelativeHumidity_IsbL-0100_RLatLon0.03_PT029H.grib2 2026-05-04 18:19 871K
20260504T12Z_MSC_CAPS_RelativeHumidity_IsbL-0150_RLatLon0.03_PT029H.grib2 2026-05-04 18:19 606K
20260504T12Z_MSC_CAPS_RelativeHumidity_IsbL-0175_RLatLon0.03_PT029H.grib2 2026-05-04 18:19 488K
20260504T12Z_MSC_CAPS_RelativeHumidity_IsbL-0200_RLatLon0.03_PT029H.grib2 2026-05-04 18:19 668K
20260504T12Z_MSC_CAPS_RelativeHumidity_IsbL-0225_RLatLon0.03_PT029H.grib2 2026-05-04 18:19 882K
20260504T12Z_MSC_CAPS_RelativeHumidity_IsbL-0250_RLatLon0.03_PT029H.grib2 2026-05-04 18:19 1.1M
20260504T12Z_MSC_CAPS_RelativeHumidity_IsbL-0275_RLatLon0.03_PT029H.grib2 2026-05-04 18:19 1.4M
20260504T12Z_MSC_CAPS_RelativeHumidity_IsbL-0300_RLatLon0.03_PT029H.grib2 2026-05-04 18:19 1.5M
20260504T12Z_MSC_CAPS_RelativeHumidity_IsbL-0350_RLatLon0.03_PT029H.grib2 2026-05-04 18:19 2.0M
20260504T12Z_MSC_CAPS_RelativeHumidity_IsbL-0400_RLatLon0.03_PT029H.grib2 2026-05-04 18:19 1.9M
20260504T12Z_MSC_CAPS_RelativeHumidity_IsbL-0450_RLatLon0.03_PT029H.grib2 2026-05-04 18:19 2.0M
20260504T12Z_MSC_CAPS_RelativeHumidity_IsbL-0500_RLatLon0.03_PT029H.grib2 2026-05-04 18:19 2.2M
20260504T12Z_MSC_CAPS_RelativeHumidity_IsbL-0550_RLatLon0.03_PT029H.grib2 2026-05-04 18:19 2.1M
20260504T12Z_MSC_CAPS_RelativeHumidity_IsbL-0600_RLatLon0.03_PT029H.grib2 2026-05-04 18:19 2.1M
20260504T12Z_MSC_CAPS_RelativeHumidity_IsbL-0650_RLatLon0.03_PT029H.grib2 2026-05-04 18:19 2.3M
20260504T12Z_MSC_CAPS_RelativeHumidity_IsbL-0700_RLatLon0.03_PT029H.grib2 2026-05-04 18:19 2.3M
20260504T12Z_MSC_CAPS_RelativeHumidity_IsbL-0750_RLatLon0.03_PT029H.grib2 2026-05-04 18:19 2.4M
20260504T12Z_MSC_CAPS_RelativeHumidity_IsbL-0800_RLatLon0.03_PT029H.grib2 2026-05-04 18:19 2.6M
20260504T12Z_MSC_CAPS_RelativeHumidity_IsbL-0850_RLatLon0.03_PT029H.grib2 2026-05-04 18:19 2.6M
20260504T12Z_MSC_CAPS_RelativeHumidity_IsbL-0875_RLatLon0.03_PT029H.grib2 2026-05-04 18:19 2.6M
20260504T12Z_MSC_CAPS_RelativeHumidity_IsbL-0900_RLatLon0.03_PT029H.grib2 2026-05-04 18:19 2.7M
20260504T12Z_MSC_CAPS_RelativeHumidity_IsbL-0925_RLatLon0.03_PT029H.grib2 2026-05-04 18:19 2.7M
20260504T12Z_MSC_CAPS_RelativeHumidity_IsbL-0950_RLatLon0.03_PT029H.grib2 2026-05-04 18:19 2.8M
20260504T12Z_MSC_CAPS_RelativeHumidity_IsbL-0970_RLatLon0.03_PT029H.grib2 2026-05-04 18:19 2.8M
20260504T12Z_MSC_CAPS_RelativeHumidity_IsbL-0985_RLatLon0.03_PT029H.grib2 2026-05-04 18:19 2.9M
20260504T12Z_MSC_CAPS_RelativeHumidity_IsbL-1000_RLatLon0.03_PT029H.grib2 2026-05-04 18:19 2.9M
20260504T12Z_MSC_CAPS_RelativeHumidity_IsbL-1015_RLatLon0.03_PT029H.grib2 2026-05-04 18:19 2.9M
20260504T12Z_MSC_CAPS_Runoff-Accum_Sfc_RLatLon0.03_PT029H.grib2 2026-05-04 18:19 288K
20260504T12Z_MSC_CAPS_SeaIceAreaFraction_Sfc_RLatLon0.03_PT029H.nc 2026-05-04 18:14 15M
20260504T12Z_MSC_CAPS_SeaIceCompressiveStrength_Sfc_RLatLon0.03_PT029H.nc 2026-05-04 18:14 15M
20260504T12Z_MSC_CAPS_SeaIceDivergence_Sfc_RLatLon0.03_PT029H.nc 2026-05-04 18:14 15M
20260504T12Z_MSC_CAPS_SeaIceInternalPressure_Sfc_RLatLon0.03_PT029H.nc 2026-05-04 18:14 15M
20260504T12Z_MSC_CAPS_SeaIceShear_Sfc_RLatLon0.03_PT029H.nc 2026-05-04 18:14 15M
20260504T12Z_MSC_CAPS_SeaIceSnowTemp_Sfc_RLatLon0.03_PT029H.nc 2026-05-04 18:14 14M
20260504T12Z_MSC_CAPS_SeaIceSnowVolume_Sfc_RLatLon0.03_PT029H.nc 2026-05-04 18:14 15M
20260504T12Z_MSC_CAPS_SeaIceVelocityX_Sfc_RLatLon0.03_PT029H.nc 2026-05-04 18:14 15M
20260504T12Z_MSC_CAPS_SeaIceVelocityY_Sfc_RLatLon0.03_PT029H.nc 2026-05-04 18:14 15M
20260504T12Z_MSC_CAPS_SeaIceVolume_Sfc_RLatLon0.03_PT029H.nc 2026-05-04 18:14 15M
20260504T12Z_MSC_CAPS_SeaSurfaceHeight_Sfc_RLatLon0.03_PT029H.nc 2026-05-04 18:14 16M
20260504T12Z_MSC_CAPS_SeaWaterSalinity_DBS-0.5m_RLatLon0.03_PT029H.nc 2026-05-04 18:14 16M
20260504T12Z_MSC_CAPS_SeaWaterSalinity_DBS-all_RLatLon0.03_PT029H.nc 2026-05-04 18:14 107M
20260504T12Z_MSC_CAPS_SeaWaterTemp_DBS-0.5m_RLatLon0.03_PT029H.nc 2026-05-04 18:14 14M
20260504T12Z_MSC_CAPS_SeaWaterTemp_DBS-all_RLatLon0.03_PT029H.nc 2026-05-04 18:14 88M
20260504T12Z_MSC_CAPS_SeaWaterVelocityX_DBS-0.5m_RLatLon0.03_PT029H.nc 2026-05-04 18:14 18M
20260504T12Z_MSC_CAPS_SeaWaterVelocityX_DBS-all_RLatLon0.03_PT029H.nc 2026-05-04 18:14 211M
20260504T12Z_MSC_CAPS_SeaWaterVelocityY_DBS-0.5m_RLatLon0.03_PT029H.nc 2026-05-04 18:14 17M
20260504T12Z_MSC_CAPS_SeaWaterVelocityY_DBS-all_RLatLon0.03_PT029H.nc 2026-05-04 18:14 216M
20260504T12Z_MSC_CAPS_SensibleHeatNetFlux_Sfc_RLatLon0.03_PT029H.grib2 2026-05-04 18:19 2.2M
20260504T12Z_MSC_CAPS_ShowalterIndex_IsbL-0500_RLatLon0.03_PT029H.grib2 2026-05-04 18:19 4.3M
20260504T12Z_MSC_CAPS_Snow-Accum_Sfc_RLatLon0.03_PT029H.grib2 2026-05-04 18:19 3.8M
20260504T12Z_MSC_CAPS_SnowDensity_Sfc_RLatLon0.03_PT029H.grib2 2026-05-04 18:19 1.3M
20260504T12Z_MSC_CAPS_SnowDepthWaterEquivalent_Sfc_RLatLon0.03_PT029H.grib2 2026-05-04 18:19 660K
20260504T12Z_MSC_CAPS_SnowDepth_Sfc_RLatLon0.03_PT029H.grib2 2026-05-04 18:19 1.1M
20260504T12Z_MSC_CAPS_SoilTemp_DBS-0to10cm_RLatLon0.03_PT029H.grib2 2026-05-04 18:19 1.6M
20260504T12Z_MSC_CAPS_SoilTemp_Sfc_RLatLon0.03_PT029H.grib2 2026-05-04 18:19 1.8M
20260504T12Z_MSC_CAPS_SoilVolumetricIceContent_Sfc_RLatLon0.03_PT029H.grib2 2026-05-04 18:19 1.4M
20260504T12Z_MSC_CAPS_SoilVolumetricWaterContent_DBS-0to10cm_RLatLon0.03_PT029H.grib2 2026-05-04 18:19 1.3M
20260504T12Z_MSC_CAPS_SoilVolumetricWaterContent_DBS-0to1cm_RLatLon0.03_PT029H.grib2 2026-05-04 18:19 1.7M
20260504T12Z_MSC_CAPS_SpecificHumidity_AGL-120m_RLatLon0.03_PT029H.grib2 2026-05-04 18:19 1.5M
20260504T12Z_MSC_CAPS_SpecificHumidity_AGL-2m_RLatLon0.03_PT029H.grib2 2026-05-04 18:19 1.7M
20260504T12Z_MSC_CAPS_SpecificHumidity_AGL-40m_RLatLon0.03_PT029H.grib2 2026-05-04 18:19 1.5M
20260504T12Z_MSC_CAPS_SpecificHumidity_AGL-80m_RLatLon0.03_PT029H.grib2 2026-05-04 18:19 1.5M
20260504T12Z_MSC_CAPS_SpecificHumidity_IsbL-0050_RLatLon0.03_PT029H.grib2 2026-05-04 18:19 926K
20260504T12Z_MSC_CAPS_SpecificHumidity_IsbL-0100_RLatLon0.03_PT029H.grib2 2026-05-04 18:19 1.0M
20260504T12Z_MSC_CAPS_SpecificHumidity_IsbL-0150_RLatLon0.03_PT029H.grib2 2026-05-04 18:19 1.0M
20260504T12Z_MSC_CAPS_SpecificHumidity_IsbL-0175_RLatLon0.03_PT029H.grib2 2026-05-04 18:19 1.0M
20260504T12Z_MSC_CAPS_SpecificHumidity_IsbL-0200_RLatLon0.03_PT029H.grib2 2026-05-04 18:19 905K
20260504T12Z_MSC_CAPS_SpecificHumidity_IsbL-0225_RLatLon0.03_PT029H.grib2 2026-05-04 18:19 1.1M
20260504T12Z_MSC_CAPS_SpecificHumidity_IsbL-0250_RLatLon0.03_PT029H.grib2 2026-05-04 18:19 1.1M
20260504T12Z_MSC_CAPS_SpecificHumidity_IsbL-0275_RLatLon0.03_PT029H.grib2 2026-05-04 18:19 1.1M
20260504T12Z_MSC_CAPS_SpecificHumidity_IsbL-0300_RLatLon0.03_PT029H.grib2 2026-05-04 18:19 1.0M
20260504T12Z_MSC_CAPS_SpecificHumidity_IsbL-0350_RLatLon0.03_PT029H.grib2 2026-05-04 18:19 1.0M
20260504T12Z_MSC_CAPS_SpecificHumidity_IsbL-0400_RLatLon0.03_PT029H.grib2 2026-05-04 18:19 1.2M
20260504T12Z_MSC_CAPS_SpecificHumidity_IsbL-0450_RLatLon0.03_PT029H.grib2 2026-05-04 18:19 1.2M
20260504T12Z_MSC_CAPS_SpecificHumidity_IsbL-0500_RLatLon0.03_PT029H.grib2 2026-05-04 18:19 1.1M
20260504T12Z_MSC_CAPS_SpecificHumidity_IsbL-0550_RLatLon0.03_PT029H.grib2 2026-05-04 18:19 1.3M
20260504T12Z_MSC_CAPS_SpecificHumidity_IsbL-0600_RLatLon0.03_PT029H.grib2 2026-05-04 18:19 1.4M
20260504T12Z_MSC_CAPS_SpecificHumidity_IsbL-0650_RLatLon0.03_PT029H.grib2 2026-05-04 18:19 1.5M
20260504T12Z_MSC_CAPS_SpecificHumidity_IsbL-0700_RLatLon0.03_PT029H.grib2 2026-05-04 18:19 1.3M
20260504T12Z_MSC_CAPS_SpecificHumidity_IsbL-0750_RLatLon0.03_PT029H.grib2 2026-05-04 18:19 1.4M
20260504T12Z_MSC_CAPS_SpecificHumidity_IsbL-0800_RLatLon0.03_PT029H.grib2 2026-05-04 18:19 1.6M
20260504T12Z_MSC_CAPS_SpecificHumidity_IsbL-0850_RLatLon0.03_PT029H.grib2 2026-05-04 18:19 1.8M
20260504T12Z_MSC_CAPS_SpecificHumidity_IsbL-0875_RLatLon0.03_PT029H.grib2 2026-05-04 18:19 1.4M
20260504T12Z_MSC_CAPS_SpecificHumidity_IsbL-0900_RLatLon0.03_PT029H.grib2 2026-05-04 18:19 1.5M
20260504T12Z_MSC_CAPS_SpecificHumidity_IsbL-0925_RLatLon0.03_PT029H.grib2 2026-05-04 18:19 1.6M
20260504T12Z_MSC_CAPS_SpecificHumidity_IsbL-0950_RLatLon0.03_PT029H.grib2 2026-05-04 18:19 1.6M
20260504T12Z_MSC_CAPS_SpecificHumidity_IsbL-0970_RLatLon0.03_PT029H.grib2 2026-05-04 18:19 1.6M
20260504T12Z_MSC_CAPS_SpecificHumidity_IsbL-0985_RLatLon0.03_PT029H.grib2 2026-05-04 18:19 1.7M
20260504T12Z_MSC_CAPS_SpecificHumidity_IsbL-1000_RLatLon0.03_PT029H.grib2 2026-05-04 18:19 1.7M
20260504T12Z_MSC_CAPS_SpecificHumidity_IsbL-1015_RLatLon0.03_PT029H.grib2 2026-05-04 18:19 1.8M
20260504T12Z_MSC_CAPS_SpecificHumidity_Sfc_RLatLon0.03_PT029H.grib2 2026-05-04 18:19 2.1M
20260504T12Z_MSC_CAPS_StormRelativeHelicity_Sfc_RLatLon0.03_PT029H.grib2 2026-05-04 18:19 3.3M
20260504T12Z_MSC_CAPS_Thickness_IsbL-1000to0500_RLatLon0.03_PT029H.grib2 2026-05-04 18:19 433K
20260504T12Z_MSC_CAPS_TotalCloudCover_Sfc_RLatLon0.03_PT029H.grib2 2026-05-04 18:19 3.6M
20260504T12Z_MSC_CAPS_TurboclineDepth_Sfc_RLatLon0.03_PT029H.nc 2026-05-04 18:14 16M
20260504T12Z_MSC_CAPS_UpwardLongwaveRadiationFlux_NTAtm_RLatLon0.03_PT029H.grib2 2026-05-04 18:19 2.9M
20260504T12Z_MSC_CAPS_UpwardShortwaveRadiationFlux_NTAtm_RLatLon0.03_PT029H.grib2 2026-05-04 18:19 2.7M
20260504T12Z_MSC_CAPS_VerticalVelocity_IsbL-0250_RLatLon0.03_PT029H.grib2 2026-05-04 18:19 914K
20260504T12Z_MSC_CAPS_VerticalVelocity_IsbL-0500_RLatLon0.03_PT029H.grib2 2026-05-04 18:19 884K
20260504T12Z_MSC_CAPS_VerticalVelocity_IsbL-0700_RLatLon0.03_PT029H.grib2 2026-05-04 18:19 1.1M
20260504T12Z_MSC_CAPS_VerticalVelocity_IsbL-0850_RLatLon0.03_PT029H.grib2 2026-05-04 18:19 1.1M
20260504T12Z_MSC_CAPS_VerticalVelocity_IsbL-1000_RLatLon0.03_PT029H.grib2 2026-05-04 18:19 1.4M
20260504T12Z_MSC_CAPS_WindDir_AGL-10m_RLatLon0.03_PT029H.grib2 2026-05-04 18:19 2.4M
20260504T12Z_MSC_CAPS_WindDir_AGL-120m_RLatLon0.03_PT029H.grib2 2026-05-04 18:19 1.3M
20260504T12Z_MSC_CAPS_WindDir_AGL-40m_RLatLon0.03_PT029H.grib2 2026-05-04 18:19 1.4M
20260504T12Z_MSC_CAPS_WindDir_AGL-80m_RLatLon0.03_PT029H.grib2 2026-05-04 18:19 1.3M
20260504T12Z_MSC_CAPS_WindDir_IsbL-0050_RLatLon0.03_PT029H.grib2 2026-05-04 18:19 1.0M
20260504T12Z_MSC_CAPS_WindDir_IsbL-0100_RLatLon0.03_PT029H.grib2 2026-05-04 18:19 1.0M
20260504T12Z_MSC_CAPS_WindDir_IsbL-0150_RLatLon0.03_PT029H.grib2 2026-05-04 18:19 1.0M
20260504T12Z_MSC_CAPS_WindDir_IsbL-0175_RLatLon0.03_PT029H.grib2 2026-05-04 18:19 1.0M
20260504T12Z_MSC_CAPS_WindDir_IsbL-0200_RLatLon0.03_PT029H.grib2 2026-05-04 18:19 1.1M
20260504T12Z_MSC_CAPS_WindDir_IsbL-0225_RLatLon0.03_PT029H.grib2 2026-05-04 18:19 1.1M
20260504T12Z_MSC_CAPS_WindDir_IsbL-0250_RLatLon0.03_PT029H.grib2 2026-05-04 18:19 1.1M
20260504T12Z_MSC_CAPS_WindDir_IsbL-0275_RLatLon0.03_PT029H.grib2 2026-05-04 18:19 1.1M
20260504T12Z_MSC_CAPS_WindDir_IsbL-0300_RLatLon0.03_PT029H.grib2 2026-05-04 18:19 1.1M
20260504T12Z_MSC_CAPS_WindDir_IsbL-0350_RLatLon0.03_PT029H.grib2 2026-05-04 18:19 1.1M
20260504T12Z_MSC_CAPS_WindDir_IsbL-0400_RLatLon0.03_PT029H.grib2 2026-05-04 18:19 1.1M
20260504T12Z_MSC_CAPS_WindDir_IsbL-0450_RLatLon0.03_PT029H.grib2 2026-05-04 18:19 1.2M
20260504T12Z_MSC_CAPS_WindDir_IsbL-0500_RLatLon0.03_PT029H.grib2 2026-05-04 18:19 1.3M
20260504T12Z_MSC_CAPS_WindDir_IsbL-0550_RLatLon0.03_PT029H.grib2 2026-05-04 18:19 1.3M
20260504T12Z_MSC_CAPS_WindDir_IsbL-0600_RLatLon0.03_PT029H.grib2 2026-05-04 18:19 1.3M
20260504T12Z_MSC_CAPS_WindDir_IsbL-0650_RLatLon0.03_PT029H.grib2 2026-05-04 18:19 1.4M
20260504T12Z_MSC_CAPS_WindDir_IsbL-0700_RLatLon0.03_PT029H.grib2 2026-05-04 18:19 1.5M
20260504T12Z_MSC_CAPS_WindDir_IsbL-0750_RLatLon0.03_PT029H.grib2 2026-05-04 18:19 1.5M
20260504T12Z_MSC_CAPS_WindDir_IsbL-0800_RLatLon0.03_PT029H.grib2 2026-05-04 18:19 1.6M
20260504T12Z_MSC_CAPS_WindDir_IsbL-0850_RLatLon0.03_PT029H.grib2 2026-05-04 18:19 1.8M
20260504T12Z_MSC_CAPS_WindDir_IsbL-0875_RLatLon0.03_PT029H.grib2 2026-05-04 18:19 1.8M
20260504T12Z_MSC_CAPS_WindDir_IsbL-0900_RLatLon0.03_PT029H.grib2 2026-05-04 18:19 1.9M
20260504T12Z_MSC_CAPS_WindDir_IsbL-0925_RLatLon0.03_PT029H.grib2 2026-05-04 18:19 2.0M
20260504T12Z_MSC_CAPS_WindDir_IsbL-0950_RLatLon0.03_PT029H.grib2 2026-05-04 18:19 2.0M
20260504T12Z_MSC_CAPS_WindDir_IsbL-0970_RLatLon0.03_PT029H.grib2 2026-05-04 18:19 2.1M
20260504T12Z_MSC_CAPS_WindDir_IsbL-0985_RLatLon0.03_PT029H.grib2 2026-05-04 18:19 2.2M
20260504T12Z_MSC_CAPS_WindDir_IsbL-1000_RLatLon0.03_PT029H.grib2 2026-05-04 18:19 2.3M
20260504T12Z_MSC_CAPS_WindDir_IsbL-1015_RLatLon0.03_PT029H.grib2 2026-05-04 18:19 2.3M
20260504T12Z_MSC_CAPS_WindGust-Max_AGL-10m_RLatLon0.03_PT029H.grib2 2026-05-04 18:19 2.4M
20260504T12Z_MSC_CAPS_WindGust-Min_AGL-10m_RLatLon0.03_PT029H.grib2 2026-05-04 18:19 2.5M
20260504T12Z_MSC_CAPS_WindGust_AGL-10m_RLatLon0.03_PT029H.grib2 2026-05-04 18:19 2.6M
20260504T12Z_MSC_CAPS_WindSpeed_AGL-10m_RLatLon0.03_PT029H.grib2 2026-05-04 18:19 2.1M
20260504T12Z_MSC_CAPS_WindSpeed_AGL-120m_RLatLon0.03_PT029H.grib2 2026-05-04 18:19 1.2M
20260504T12Z_MSC_CAPS_WindSpeed_AGL-40m_RLatLon0.03_PT029H.grib2 2026-05-04 18:19 1.2M
20260504T12Z_MSC_CAPS_WindSpeed_AGL-80m_RLatLon0.03_PT029H.grib2 2026-05-04 18:19 1.2M
20260504T12Z_MSC_CAPS_WindSpeed_IsbL-0050_RLatLon0.03_PT029H.grib2 2026-05-04 18:19 957K
20260504T12Z_MSC_CAPS_WindSpeed_IsbL-0100_RLatLon0.03_PT029H.grib2 2026-05-04 18:19 1.3M
20260504T12Z_MSC_CAPS_WindSpeed_IsbL-0150_RLatLon0.03_PT029H.grib2 2026-05-04 18:19 1.0M
20260504T12Z_MSC_CAPS_WindSpeed_IsbL-0175_RLatLon0.03_PT029H.grib2 2026-05-04 18:19 1.1M
20260504T12Z_MSC_CAPS_WindSpeed_IsbL-0200_RLatLon0.03_PT029H.grib2 2026-05-04 18:19 1.2M
20260504T12Z_MSC_CAPS_WindSpeed_IsbL-0225_RLatLon0.03_PT029H.grib2 2026-05-04 18:19 956K
20260504T12Z_MSC_CAPS_WindSpeed_IsbL-0250_RLatLon0.03_PT029H.grib2 2026-05-04 18:19 969K
20260504T12Z_MSC_CAPS_WindSpeed_IsbL-0275_RLatLon0.03_PT029H.grib2 2026-05-04 18:19 1.0M
20260504T12Z_MSC_CAPS_WindSpeed_IsbL-0300_RLatLon0.03_PT029H.grib2 2026-05-04 18:19 1.0M
20260504T12Z_MSC_CAPS_WindSpeed_IsbL-0350_RLatLon0.03_PT029H.grib2 2026-05-04 18:19 1.0M
20260504T12Z_MSC_CAPS_WindSpeed_IsbL-0400_RLatLon0.03_PT029H.grib2 2026-05-04 18:19 1.0M
20260504T12Z_MSC_CAPS_WindSpeed_IsbL-0450_RLatLon0.03_PT029H.grib2 2026-05-04 18:19 1.0M
20260504T12Z_MSC_CAPS_WindSpeed_IsbL-0500_RLatLon0.03_PT029H.grib2 2026-05-04 18:19 1.4M
20260504T12Z_MSC_CAPS_WindSpeed_IsbL-0550_RLatLon0.03_PT029H.grib2 2026-05-04 18:19 1.5M
20260504T12Z_MSC_CAPS_WindSpeed_IsbL-0600_RLatLon0.03_PT029H.grib2 2026-05-04 18:19 1.4M
20260504T12Z_MSC_CAPS_WindSpeed_IsbL-0650_RLatLon0.03_PT029H.grib2 2026-05-04 18:19 1.6M
20260504T12Z_MSC_CAPS_WindSpeed_IsbL-0700_RLatLon0.03_PT029H.grib2 2026-05-04 18:19 1.5M
20260504T12Z_MSC_CAPS_WindSpeed_IsbL-0750_RLatLon0.03_PT029H.grib2 2026-05-04 18:19 1.5M
20260504T12Z_MSC_CAPS_WindSpeed_IsbL-0800_RLatLon0.03_PT029H.grib2 2026-05-04 18:19 1.6M
20260504T12Z_MSC_CAPS_WindSpeed_IsbL-0850_RLatLon0.03_PT029H.grib2 2026-05-04 18:19 1.8M
20260504T12Z_MSC_CAPS_WindSpeed_IsbL-0875_RLatLon0.03_PT029H.grib2 2026-05-04 18:19 1.8M
20260504T12Z_MSC_CAPS_WindSpeed_IsbL-0900_RLatLon0.03_PT029H.grib2 2026-05-04 18:19 1.9M
20260504T12Z_MSC_CAPS_WindSpeed_IsbL-0925_RLatLon0.03_PT029H.grib2 2026-05-04 18:19 1.8M
20260504T12Z_MSC_CAPS_WindSpeed_IsbL-0950_RLatLon0.03_PT029H.grib2 2026-05-04 18:19 1.8M
20260504T12Z_MSC_CAPS_WindSpeed_IsbL-0970_RLatLon0.03_PT029H.grib2 2026-05-04 18:19 2.0M
20260504T12Z_MSC_CAPS_WindSpeed_IsbL-0985_RLatLon0.03_PT029H.grib2 2026-05-04 18:19 2.1M
20260504T12Z_MSC_CAPS_WindSpeed_IsbL-1000_RLatLon0.03_PT029H.grib2 2026-05-04 18:19 2.1M
20260504T12Z_MSC_CAPS_WindSpeed_IsbL-1015_RLatLon0.03_PT029H.grib2 2026-05-04 18:19 2.1M
20260504T12Z_MSC_CAPS_WindU_AGL-10m_RLatLon0.03_PT029H.grib2 2026-05-04 18:19 1.9M
20260504T12Z_MSC_CAPS_WindU_AGL-120m_RLatLon0.03_PT029H.grib2 2026-05-04 18:19 931K
20260504T12Z_MSC_CAPS_WindU_AGL-40m_RLatLon0.03_PT029H.grib2 2026-05-04 18:19 1.2M
20260504T12Z_MSC_CAPS_WindU_AGL-80m_RLatLon0.03_PT029H.grib2 2026-05-04 18:19 1.2M
20260504T12Z_MSC_CAPS_WindU_IsbL-0050_RLatLon0.03_PT029H.grib2 2026-05-04 18:19 720K
20260504T12Z_MSC_CAPS_WindU_IsbL-0100_RLatLon0.03_PT029H.grib2 2026-05-04 18:19 964K
20260504T12Z_MSC_CAPS_WindU_IsbL-0150_RLatLon0.03_PT029H.grib2 2026-05-04 18:19 926K
20260504T12Z_MSC_CAPS_WindU_IsbL-0175_RLatLon0.03_PT029H.grib2 2026-05-04 18:19 735K
20260504T12Z_MSC_CAPS_WindU_IsbL-0200_RLatLon0.03_PT029H.grib2 2026-05-04 18:19 884K
20260504T12Z_MSC_CAPS_WindU_IsbL-0225_RLatLon0.03_PT029H.grib2 2026-05-04 18:19 900K
20260504T12Z_MSC_CAPS_WindU_IsbL-0250_RLatLon0.03_PT029H.grib2 2026-05-04 18:19 916K
20260504T12Z_MSC_CAPS_WindU_IsbL-0275_RLatLon0.03_PT029H.grib2 2026-05-04 18:19 921K
20260504T12Z_MSC_CAPS_WindU_IsbL-0300_RLatLon0.03_PT029H.grib2 2026-05-04 18:19 930K
20260504T12Z_MSC_CAPS_WindU_IsbL-0350_RLatLon0.03_PT029H.grib2 2026-05-04 18:19 947K
20260504T12Z_MSC_CAPS_WindU_IsbL-0400_RLatLon0.03_PT029H.grib2 2026-05-04 18:19 956K
20260504T12Z_MSC_CAPS_WindU_IsbL-0450_RLatLon0.03_PT029H.grib2 2026-05-04 18:19 1.0M
20260504T12Z_MSC_CAPS_WindU_IsbL-0500_RLatLon0.03_PT029H.grib2 2026-05-04 18:19 1.0M
20260504T12Z_MSC_CAPS_WindU_IsbL-0550_RLatLon0.03_PT029H.grib2 2026-05-04 18:19 1.0M
20260504T12Z_MSC_CAPS_WindU_IsbL-0600_RLatLon0.03_PT029H.grib2 2026-05-04 18:19 946K
20260504T12Z_MSC_CAPS_WindU_IsbL-0650_RLatLon0.03_PT029H.grib2 2026-05-04 18:19 1.1M
20260504T12Z_MSC_CAPS_WindU_IsbL-0700_RLatLon0.03_PT029H.grib2 2026-05-04 18:19 1.1M
20260504T12Z_MSC_CAPS_WindU_IsbL-0750_RLatLon0.03_PT029H.grib2 2026-05-04 18:19 1.1M
20260504T12Z_MSC_CAPS_WindU_IsbL-0800_RLatLon0.03_PT029H.grib2 2026-05-04 18:19 1.2M
20260504T12Z_MSC_CAPS_WindU_IsbL-0850_RLatLon0.03_PT029H.grib2 2026-05-04 18:19 1.2M
20260504T12Z_MSC_CAPS_WindU_IsbL-0875_RLatLon0.03_PT029H.grib2 2026-05-04 18:19 1.3M
20260504T12Z_MSC_CAPS_WindU_IsbL-0900_RLatLon0.03_PT029H.grib2 2026-05-04 18:19 1.3M
20260504T12Z_MSC_CAPS_WindU_IsbL-0925_RLatLon0.03_PT029H.grib2 2026-05-04 18:19 1.4M
20260504T12Z_MSC_CAPS_WindU_IsbL-0950_RLatLon0.03_PT029H.grib2 2026-05-04 18:19 1.4M
20260504T12Z_MSC_CAPS_WindU_IsbL-0970_RLatLon0.03_PT029H.grib2 2026-05-04 18:19 1.4M
20260504T12Z_MSC_CAPS_WindU_IsbL-0985_RLatLon0.03_PT029H.grib2 2026-05-04 18:19 1.8M
20260504T12Z_MSC_CAPS_WindU_IsbL-1000_RLatLon0.03_PT029H.grib2 2026-05-04 18:19 1.9M
20260504T12Z_MSC_CAPS_WindU_IsbL-1015_RLatLon0.03_PT029H.grib2 2026-05-04 18:19 1.9M
20260504T12Z_MSC_CAPS_WindV_AGL-10m_RLatLon0.03_PT029H.grib2 2026-05-04 18:19 1.9M
20260504T12Z_MSC_CAPS_WindV_AGL-120m_RLatLon0.03_PT029H.grib2 2026-05-04 18:19 930K
20260504T12Z_MSC_CAPS_WindV_AGL-40m_RLatLon0.03_PT029H.grib2 2026-05-04 18:19 965K
20260504T12Z_MSC_CAPS_WindV_AGL-80m_RLatLon0.03_PT029H.grib2 2026-05-04 18:19 935K
20260504T12Z_MSC_CAPS_WindV_IsbL-0050_RLatLon0.03_PT029H.grib2 2026-05-04 18:19 773K
20260504T12Z_MSC_CAPS_WindV_IsbL-0100_RLatLon0.03_PT029H.grib2 2026-05-04 18:19 797K
20260504T12Z_MSC_CAPS_WindV_IsbL-0150_RLatLon0.03_PT029H.grib2 2026-05-04 18:19 707K
20260504T12Z_MSC_CAPS_WindV_IsbL-0175_RLatLon0.03_PT029H.grib2 2026-05-04 18:19 727K
20260504T12Z_MSC_CAPS_WindV_IsbL-0200_RLatLon0.03_PT029H.grib2 2026-05-04 18:19 877K
20260504T12Z_MSC_CAPS_WindV_IsbL-0225_RLatLon0.03_PT029H.grib2 2026-05-04 18:19 892K
20260504T12Z_MSC_CAPS_WindV_IsbL-0250_RLatLon0.03_PT029H.grib2 2026-05-04 18:19 909K
20260504T12Z_MSC_CAPS_WindV_IsbL-0275_RLatLon0.03_PT029H.grib2 2026-05-04 18:19 918K
20260504T12Z_MSC_CAPS_WindV_IsbL-0300_RLatLon0.03_PT029H.grib2 2026-05-04 18:19 715K
20260504T12Z_MSC_CAPS_WindV_IsbL-0350_RLatLon0.03_PT029H.grib2 2026-05-04 18:19 942K
20260504T12Z_MSC_CAPS_WindV_IsbL-0400_RLatLon0.03_PT029H.grib2 2026-05-04 18:19 951K
20260504T12Z_MSC_CAPS_WindV_IsbL-0450_RLatLon0.03_PT029H.grib2 2026-05-04 18:19 970K
20260504T12Z_MSC_CAPS_WindV_IsbL-0500_RLatLon0.03_PT029H.grib2 2026-05-04 18:19 1.0M
20260504T12Z_MSC_CAPS_WindV_IsbL-0550_RLatLon0.03_PT029H.grib2 2026-05-04 18:19 916K
20260504T12Z_MSC_CAPS_WindV_IsbL-0600_RLatLon0.03_PT029H.grib2 2026-05-04 18:19 942K
20260504T12Z_MSC_CAPS_WindV_IsbL-0650_RLatLon0.03_PT029H.grib2 2026-05-04 18:19 1.0M
20260504T12Z_MSC_CAPS_WindV_IsbL-0700_RLatLon0.03_PT029H.grib2 2026-05-04 18:19 1.3M
20260504T12Z_MSC_CAPS_WindV_IsbL-0750_RLatLon0.03_PT029H.grib2 2026-05-04 18:19 1.1M
20260504T12Z_MSC_CAPS_WindV_IsbL-0800_RLatLon0.03_PT029H.grib2 2026-05-04 18:19 1.2M
20260504T12Z_MSC_CAPS_WindV_IsbL-0850_RLatLon0.03_PT029H.grib2 2026-05-04 18:19 1.2M
20260504T12Z_MSC_CAPS_WindV_IsbL-0875_RLatLon0.03_PT029H.grib2 2026-05-04 18:19 1.3M
20260504T12Z_MSC_CAPS_WindV_IsbL-0900_RLatLon0.03_PT029H.grib2 2026-05-04 18:19 1.3M
20260504T12Z_MSC_CAPS_WindV_IsbL-0925_RLatLon0.03_PT029H.grib2 2026-05-04 18:19 1.3M
20260504T12Z_MSC_CAPS_WindV_IsbL-0950_RLatLon0.03_PT029H.grib2 2026-05-04 18:19 1.4M
20260504T12Z_MSC_CAPS_WindV_IsbL-0970_RLatLon0.03_PT029H.grib2 2026-05-04 18:19 1.4M
20260504T12Z_MSC_CAPS_WindV_IsbL-0985_RLatLon0.03_PT029H.grib2 2026-05-04 18:19 1.5M
20260504T12Z_MSC_CAPS_WindV_IsbL-1000_RLatLon0.03_PT029H.grib2 2026-05-04 18:19 1.5M
20260504T12Z_MSC_CAPS_WindV_IsbL-1015_RLatLon0.03_PT029H.grib2 2026-05-04 18:19 1.9M